Precipitable_Water
0.84 0.85 0.75 0.70 0.65 0.66 0.63 0.57 0.56 0.58 0.60 0.61 0.62 0.63 0.67 0.71 0.77 0.75 0.71 0.72 0.65 0.62 0.61 0.60 0.59 0.60 0.60 0.65 0.61 0.58 0.55 0.56 0.58 0.60 0.59 0.59 0.59 0.59 0.58 0.58 0.58 0.61 0.66
0.83 0.76 0.71 0.65 0.64 0.65 0.63 0.57 0.55 0.58 0.59 0.61 0.60 0.63 0.64 0.66 0.73 0.75 0.66 0.63 0.59 0.56 0.54 0.54 0.53 0.57 0.60 0.56 0.54 0.53 0.51 0.52 0.54 0.54 0.53 0.54 0.54 0.55 0.56 0.56 0.57 0.58 0.59
0.84 0.77 0.68 0.63 0.62 0.64 0.61 0.56 0.57 0.60 0.59 0.61 0.60 0.62 0.64 0.67 0.68 0.68 0.69 0.61 0.53 0.49 0.48 0.50 0.50 0.50 0.52 0.52 0.48 0.50 0.50 0.49 0.51 0.50 0.50 0.49 0.49 0.48 0.49 0.50 0.53 0.55 0.56
0.87 0.76 0.66 0.62 0.63 0.65 0.59 0.55 0.54 0.57 0.57 0.58 0.58 0.60 0.63 0.65 0.64 0.61 0.57 0.52 0.49 0.48 0.42 0.40 0.42 0.43 0.44 0.45 0.49 0.51 0.53 0.53 0.53 0.51 0.50 0.50 0.50 0.49 0.49 0.49 0.49 0.52 0.55
0.83 0.72 0.67 0.64 0.65 0.59 0.57 0.54 0.55 0.58 0.57 0.57 0.57 0.60 0.60 0.60 0.61 0.58 0.54 0.47 0.42 0.39 0.41 0.40 0.38 0.37 0.37 0.39 0.42 0.46 0.49 0.49 0.48 0.46 0.47 0.47 0.47 0.48 0.49 0.50 0.50 0.50 0.52
0.78 0.70 0.68 0.66 0.61 0.57 0.56 0.54 0.55 0.58 0.57 0.55 0.54 0.58 0.59 0.62 0.62 0.57 0.50 0.46 0.42 0.39 0.37 0.38 0.39 0.37 0.36 0.35 0.38 0.40 0.43 0.46 0.47 0.46 0.46 0.46 0.46 0.47 0.47 0.47 0.50 0.52 0.52
0.76 0.69 0.67 0.65 0.59 0.56 0.55 0.57 0.58 0.55 0.54 0.53 0.52 0.55 0.59 0.61 0.59 0.58 0.51 0.46 0.40 0.35 0.32 0.32 0.32 0.35 0.38 0.37 0.35 0.34 0.36 0.41 0.44 0.44 0.44 0.44 0.43 0.44 0.45 0.46 0.48 0.50 0.50
0.78 0.72 0.69 0.65 0.62 0.60 0.59 0.60 0.60 0.55 0.54 0.55 0.49 0.49 0.48 0.56 0.57 0.51 0.46 0.45 0.42 0.36 0.30 0.27 0.29 0.32 0.35 0.37 0.35 0.32 0.30 0.36 0.39 0.42 0.41 0.42 0.42 0.43 0.44 0.45 0.46 0.47 0.49
0.79 0.73 0.71 0.66 0.61 0.61 0.63 0.64 0.61 0.59 0.56 0.54 0.59 0.55 0.55 0.50 0.47 0.45 0.44 0.43 0.40 0.36 0.31 0.26 0.26 0.29 0.33 0.35 0.34 0.30 0.28 0.30 0.34 0.39 0.39 0.38 0.41 0.41 0.42 0.44 0.44 0.44 0.46
0.81 0.74 0.72 0.66 0.64 0.62 0.61 0.64 0.63 0.63 0.59 0.49 0.60 0.61 0.58 0.54 0.42 0.40 0.41 0.42 0.41 0.37 0.32 0.24 0.23 0.27 0.30 0.33 0.32 0.28 0.27 0.29 0.31 0.34 0.33 0.34 0.36 0.37 0.37 0.39 0.40 0.40 0.42
0.86 0.77 0.73 0.71 0.68 0.66 0.64 0.65 0.63 0.62 0.57 0.54 0.49 0.53 0.51 0.48 0.45 0.39 0.37 0.37 0.36 0.35 0.32 0.27 0.21 0.25 0.28 0.30 0.30 0.28 0.26 0.26 0.28 0.27 0.28 0.28 0.27 0.28 0.31 0.32 0.33 0.34 0.36
0.85 0.79 0.77 0.74 0.69 0.65 0.66 0.65 0.63 0.58 0.55 0.55 0.57 0.54 0.45 0.39 0.40 0.37 0.37 0.35 0.31 0.31 0.30 0.27 0.22 0.22 0.25 0.29 0.28 0.28 0.26 0.25 0.25 0.24 0.24 0.24 0.25 0.26 0.27 0.28 0.30 0.30 0.31
0.83 0.80 0.78 0.72 0.70 0.68 0.68 0.66 0.62 0.58 0.59 0.60 0.56 0.51 0.49 0.50 0.46 0.39 0.36 0.33 0.30 0.31 0.29 0.29 0.22 0.22 0.21 0.27 0.29 0.28 0.25 0.23 0.22 0.22 0.22 0.22 0.23 0.24 0.25 0.26 0.26 0.27 0.28
0.88 0.83 0.79 0.75 0.70 0.71 0.69 0.65 0.63 0.64 0.61 0.58 0.59 0.53 0.53 0.48 0.44 0.39 0.35 0.31 0.28 0.29 0.30 0.31 0.24 0.22 0.22 0.23 0.22 0.26 0.26 0.21 0.21 0.20 0.20 0.20 0.22 0.22 0.23 0.24 0.24 0.25 0.26
0.94 0.85 0.79 0.73 0.70 0.71 0.70 0.67 0.66 0.65 0.61 0.63 0.54 0.55 0.50 0.45 0.43 0.39 0.36 0.33 0.30 0.26 0.26 0.30 0.25 0.23 0.21 0.23 0.18 0.26 0.28 0.20 0.18 0.17 0.18 0.19 0.20 0.21 0.22 0.23 0.23 0.23 0.24
0.95 0.88 0.78 0.73 0.74 0.70 0.69 0.67 0.71 0.64 0.62 0.58 0.57 0.55 0.47 0.44 0.41 0.38 0.34 0.32 0.31 0.30 0.27 0.28 0.21 0.22 0.20 0.19 0.19 0.24 0.24 0.22 0.18 0.15 0.16 0.18 0.18 0.19 0.21 0.21 0.21 0.21 0.22
0.96 0.92 0.79 0.79 0.76 0.70 0.73 0.77 0.66 0.59 0.58 0.61 0.64 0.50 0.44 0.42 0.38 0.36 0.34 0.31 0.28 0.27 0.27 0.24 0.24 0.24 0.22 0.21 0.21 0.22 0.25 0.22 0.18 0.14 0.15 0.17 0.17 0.18 0.19 0.19 0.19 0.19 0.20
0.97 0.90 0.83 0.83 0.81 0.72 0.69 0.60 0.56 0.59 0.70 0.67 0.51 0.46 0.41 0.40 0.39 0.37 0.34 0.31 0.29 0.27 0.28 0.22 0.23 0.22 0.22 0.21 0.21 0.21 0.19 0.17 0.15 0.14 0.14 0.15 0.16 0.17 0.18 0.18 0.18 0.18 0.18
0.94 0.91 0.82 0.85 0.79 0.73 0.62 0.59 0.66 0.76 0.72 0.55 0.48 0.43 0.41 0.40 0.40 0.38 0.34 0.31 0.28 0.25 0.26 0.25 0.22 0.22 0.22 0.21 0.21 0.20 0.19 0.22 0.14 0.14 0.14 0.16 0.16 0.18 0.18 0.17 0.17 0.18 0.18
0.89 0.88 0.86 0.84 0.81 0.75 0.75 0.78 0.79 0.72 0.59 0.50 0.46 0.46 0.42 0.41 0.41 0.37 0.35 0.32 0.28 0.26 0.26 0.24 0.22 0.21 0.21 0.21 0.20 0.19 0.20 0.21 0.19 0.15 0.16 0.16 0.17 0.20 0.19 0.16 0.16 0.17 0.17
0.88 0.86 0.84 0.85 0.84 0.83 0.81 0.79 0.73 0.62 0.52 0.49 0.48 0.44 0.43 0.43 0.42 0.38 0.34 0.31 0.29 0.29 0.26 0.24 0.22 0.21 0.20 0.20 0.21 0.21 0.19 0.19 0.24 0.21 0.16 0.20 0.18 0.21 0.21 0.18 0.15 0.16 0.17
0.88 0.86 0.85 0.83 0.81 0.80 0.78 0.74 0.65 0.56 0.50 0.49 0.44 0.43 0.42 0.41 0.40 0.36 0.36 0.33 0.34 0.30 0.27 0.24 0.23 0.22 0.21 0.20 0.21 0.22 0.19 0.18 0.20 0.23 0.15 0.21 0.19 0.20 0.21 0.20 0.17 0.16 0.17
0.81 0.82 0.82 0.80 0.77 0.76 0.75 0.70 0.64 0.55 0.52 0.47 0.44 0.42 0.42 0.42 0.39 0.36 0.34 0.31 0.30 0.29 0.28 0.28 0.23 0.22 0.20 0.20 0.20 0.21 0.18 0.19 0.18 0.19 0.15 0.21 0.21 0.19 0.20 0.21 0.19 0.17 0.18
0.74 0.76 0.77 0.79 0.77 0.75 0.73 0.67 0.60 0.55 0.50 0.45 0.43 0.41 0.42 0.39 0.37 0.33 0.32 0.28 0.28 0.26 0.26 0.26 0.24 0.24 0.23 0.20 0.21 0.20 0.19 0.22 0.22 0.21 0.16 0.16 0.20 0.18 0.19 0.21 0.21 0.19 0.18
0.74 0.70 0.71 0.73 0.73 0.71 0.72 0.66 0.57 0.49 0.46 0.46 0.44 0.45 0.44 0.38 0.37 0.34 0.30 0.28 0.27 0.26 0.26 0.25 0.24 0.21 0.19 0.19 0.21 0.23 0.22 0.20 0.19 0.20 0.18 0.15 0.18 0.17 0.18 0.19 0.20 0.20 0.18
0.64 0.69 0.71 0.72 0.69 0.67 0.67 0.64 0.58 0.51 0.47 0.45 0.47 0.52 0.44 0.39 0.36 0.35 0.33 0.29 0.26 0.24 0.22 0.20 0.19 0.18 0.19 0.17 0.20 0.24 0.21 0.19 0.17 0.19 0.19 0.14 0.16 0.16 0.16 0.22 0.20 0.22 0.20
Wind_Speed
21 21 21 20 20 19 19 18 17 16 15 14 14 13 13 13 14 14 14 14 14 14 14 14 14 14 15 15 17 18 20 21 22 23 24 25 26 28 29 30 32 32 33
23 22 22 21 21 21 20 19 19 18 17 16 16 15 15 15 15 15 15 15 15 15 14 14 15 15 16 17 19 20 21 22 23 24 25 27 28 29 30 32 33 35 35
24 23 23 23 22 22 21 20 20 19 19 18 17 17 16 16 16 16 16 16 15 15 15 14 15 16 16 18 19 21 22 24 25 27 29 31 32 33 34 35 36 37 37
25 25 24 23 23 23 22 22 21 21 20 19 19 18 18 17 17 17 17 17 16 15 15 15 15 16 17 19 21 23 24 26 28 30 31 34 35 36 37 38 38 39 39
27 26 25 25 24 24 23 23 23 22 21 21 20 19 19 19 18 17 17 16 16 15 16 16 16 17 19 21 23 25 26 28 30 33 34 35 37 38 38 39 40 40 40
28 27 26 25 26 25 25 24 24 24 23 22 21 20 20 19 19 18 17 17 16 16 16 17 18 19 20 21 23 25 28 30 32 33 35 36 37 38 38 39 39 39 39
29 28 27 26 26 26 26 26 25 24 24 23 22 21 21 20 20 20 19 17 17 16 16 17 19 20 21 22 24 26 28 30 32 34 36 36 36 36 36 35 35 35 36
30 29 28 27 27 27 26 26 26 26 25 25 23 22 22 23 22 20 19 19 18 18 18 18 19 20 22 23 25 27 29 30 32 33 33 34 34 34 33 32 31 31 32
32 31 30 29 29 28 28 28 28 27 25 26 25 24 23 23 20 20 20 19 19 18 18 19 19 20 22 24 25 27 29 30 31 30 31 32 31 31 29 28 28 29 29
33 32 31 30 30 30 29 29 28 27 27 26 25 25 24 20 21 20 22 20 19 18 19 19 20 21 22 23 24 27 28 28 28 29 30 30 29 27 26 26 26 27 28
35 34 33 32 31 30 30 29 29 29 27 27 27 26 25 24 23 22 20 19 19 19 19 19 20 21 22 23 24 25 26 27 27 28 29 28 27 25 25 25 25 26 26
37 36 34 33 32 31 30 30 30 30 29 28 28 27 26 25 24 23 21 20 20 19 19 19 20 20 21 22 23 24 26 26 27 27 26 26 24 24 23 24 24 25 26
39 38 37 35 34 32 32 31 31 31 30 29 28 27 27 26 24 23 22 20 19 18 18 19 19 20 21 21 23 23 24 25 25 25 24 24 23 23 23 23 24 25 26
40 40 38 37 35 33 33 31 31 32 31 30 29 27 27 25 23 22 21 20 19 19 19 18 18 19 20 21 22 23 23 24 25 23 23 23 22 22 22 23 24 25 25
42 41 39 38 36 35 34 33 32 32 32 31 30 28 26 24 22 21 21 20 19 18 19 18 19 20 20 21 23 22 23 23 23 23 22 22 22 22 23 23 23 24 24
43 42 40 39 38 37 36 35 34 33 32 31 30 29 25 23 22 21 19 20 19 19 18 18 19 19 19 20 21 22 22 22 23 23 22 21 22 22 22 22 23 23 23
43 42 42 40 40 39 38 36 35 33 32 32 30 28 24 22 21 19 19 19 19 19 18 18 19 19 19 20 21 21 21 22 22 23 22 21 22 22 22 22 22 22 22
43 43 43 42 41 40 38 38 35 36 34 31 28 26 24 22 21 20 19 19 19 19 19 18 19 19 19 19 20 21 21 22 22 22 22 22 22 22 22 21 21 21 21
43 44 44 41 40 40 40 37 36 32 30 29 28 26 24 23 21 20 20 20 19 19 18 18 18 18 19 20 20 21 21 21 22 23 23 22 22 21 21 20 20 20 21
42 43 44 42 42 42 42 39 35 31 30 30 29 27 25 24 22 22 21 20 19 18 18 18 18 18 19 19 20 21 21 21 22 23 22 22 21 21 20 20 20 20 20
41 43 43 42 44 42 39 36 34 33 32 30 29 28 26 25 24 23 22 21 20 19 18 18 18 18 19 19 20 21 21 22 21 22 21 20 21 20 20 20 20 20 20
38 41 40 37 36 35 34 34 34 33 32 32 30 29 27 26 24 23 22 21 20 19 18 18 18 18 19 20 20 20 21 21 20 21 21 20 20 20 20 19 20 20 20
31 33 32 33 34 33 34 35 35 35 34 33 32 31 28 27 25 24 22 20 19 18 18 18 17 18 19 19 20 20 20 20 20 20 21 19 20 20 19 19 20 20 21
34 35 33 33 34 33 35 36 37 35 35 35 34 33 30 29 27 25 23 21 19 18 18 17 16 17 18 18 19 20 20 20 19 18 20 19 20 20 19 19 20 20 21
37 37 37 36 35 35 37 37 39 36 36 35 34 34 32 30 29 26 23 21 19 18 17 16 16 15 16 18 19 20 20 19 19 19 19 19 19 20 19 19 20 21 21
37 36 37 39 39 37 35 37 38 36 35 37 35 34 33 31 30 27 24 22 20 19 17 16 15 15 16 17 18 18 18 19 18 18 19 19 19 19 19 18 21 21 22
Wind_Direction
235 236 237 238 240 241 243 245 247 249 254 261 268 274 279 283 287 291 294 296 298 300 300 300 300 301 302 304 305 306 304 304 304 304 303 301 299 296 294 290 286 282 279
236 238 239 240 241 242 244 246 248 251 255 260 266 271 276 280 285 287 290 293 295 297 298 300 302 302 302 303 305 307 306 305 305 303 302 302 300 297 295 293 290 285 280
237 238 239 241 241 243 244 246 248 251 255 259 264 269 273 279 283 285 285 287 292 297 297 300 302 302 304 308 308 310 309 307 307 306 305 303 300 298 295 292 289 286 282
237 238 240 241 241 243 245 247 249 252 255 259 263 268 272 277 281 282 284 285 286 288 294 298 301 304 307 309 311 311 312 310 309 309 308 307 304 301 298 295 292 287 283
236 238 241 242 241 243 246 248 250 252 254 258 262 266 270 274 277 281 283 283 285 288 287 292 299 303 306 310 311 312 313 313 312 311 309 307 305 303 300 297 293 290 285
236 238 241 242 242 245 247 249 250 253 255 257 261 265 268 273 274 277 278 279 282 286 289 291 294 302 308 310 312 313 313 314 312 312 312 309 307 306 303 298 296 291 287
236 238 241 242 243 245 248 250 251 252 254 256 260 265 270 270 272 275 274 275 279 284 288 294 296 299 304 310 313 314 313 314 314 312 312 310 309 306 304 301 298 294 289
235 238 241 242 243 246 248 250 250 251 253 254 260 263 266 272 272 269 270 273 275 282 286 293 296 300 303 307 312 315 317 315 313 313 313 311 309 308 305 303 301 298 295
237 239 241 243 244 247 249 250 251 251 252 252 258 265 270 270 263 266 267 273 273 278 283 290 295 300 303 307 310 313 315 313 313 311 311 312 312 310 308 307 305 304 300
238 239 241 243 244 248 249 252 252 250 250 252 257 263 266 266 266 268 266 267 271 277 283 288 294 299 304 308 311 313 313 312 311 312 313 314 313 311 310 310 310 311 308
239 240 241 243 244 249 249 253 249 248 250 253 256 261 258 260 263 268 262 262 268 274 281 287 293 299 304 307 309 311 312 311 313 313 314 314 313 311 311 312 313 315 315
238 239 242 243 245 249 251 252 249 246 251 254 258 256 254 256 261 261 263 261 265 270 278 286 294 299 301 304 308 308 310 310 313 315 315 315 313 312 313 313 315 317 318
239 239 241 242 244 248 250 252 249 249 251 255 256 254 251 255 259 257 259 259 262 269 278 286 291 295 298 301 306 306 309 311 313 314 315 315 313 313 314 315 316 318 319
240 239 240 243 244 247 249 250 249 249 250 252 253 251 250 251 253 255 256 256 261 269 274 281 287 292 296 300 304 305 307 311 313 314 313 313 312 313 314 315 317 318 319
240 239 240 241 244 247 247 248 249 249 249 251 249 248 245 247 249 251 254 256 264 272 270 276 284 291 296 298 302 304 305 310 313 312 311 311 311 311 313 315 318 320 321
239 238 240 242 244 247 248 247 249 247 250 248 247 244 240 243 246 251 254 260 264 269 270 275 282 288 293 298 302 303 306 309 312 311 309 309 310 310 312 315 317 321 324
239 238 240 242 244 246 247 246 246 244 247 246 242 236 238 241 245 253 257 260 263 265 268 277 279 286 292 296 299 304 306 306 309 310 308 307 309 310 311 314 317 321 323
240 239 240 243 245 245 242 242 244 245 246 239 233 232 237 241 246 250 255 258 261 264 267 271 276 282 288 294 299 302 304 304 306 308 305 307 307 309 310 312 315 319 323
242 239 241 241 241 239 239 242 247 240 232 231 231 233 240 241 244 250 254 257 261 263 267 270 275 281 287 293 296 299 302 302 304 306 305 304 305 306 309 310 313 317 321
242 240 238 242 241 240 240 241 233 231 231 231 232 236 237 239 243 247 252 257 259 261 264 268 273 281 285 292 296 298 297 302 304 307 303 304 302 301 305 310 311 315 318
241 240 238 242 241 241 235 230 226 230 230 231 234 236 235 238 242 245 250 253 255 258 261 264 272 279 285 289 294 297 298 300 302 304 305 302 304 298 300 306 312 312 315
240 240 238 239 233 230 226 226 228 230 232 233 233 233 233 235 239 243 247 250 253 255 259 265 271 280 285 288 293 295 298 299 298 303 304 300 303 299 299 299 308 311 312
235 234 238 236 234 231 229 231 232 233 234 232 231 230 232 236 237 240 243 246 249 253 260 265 271 278 283 287 291 294 297 298 298 301 304 299 303 301 298 296 304 308 311
239 242 240 237 233 234 234 235 234 234 233 232 231 230 233 234 235 235 240 242 247 253 258 264 269 278 282 285 291 295 295 297 298 298 304 299 302 302 298 295 301 306 311
245 245 244 241 237 240 241 240 233 232 232 230 232 230 233 232 231 232 236 240 245 251 258 262 269 276 281 287 291 293 295 297 295 296 302 301 302 303 298 295 300 303 307
248 245 242 243 239 243 240 235 232 231 233 231 229 231 230 230 229 231 236 237 244 249 252 260 268 275 281 288 292 296 295 295 296 295 300 301 303 304 301 298 303 303 306